Location: Usti nad Orlici
(49.9830°N, 16.4000°E)
Time: 20:14:36
(UTC+01:00)

ISS - Visible Passes

Search period start: 09 December 2018 00:00
Search period end: 19 December 2018 00:00
Orbit: 401 x 408 km, 51.6° (Epoch: 10 December)

Date Brightness Start Highest point End Pass type
(mag) Time Alt. Az. Time Alt. Az. Time Alt. Az.
09 Dec -3.9 16:46:16 10° WNW 16:49:33 83° NNE 16:52:49 10° ESE visible
09 Dec -2.1 18:22:56 10° W 18:25:49 29° SSW 18:25:52 29° SSW visible
10 Dec -2.8 17:30:36 10° WNW 17:33:44 44° SSW 17:36:18 14° SE visible
11 Dec -3.4 16:38:19 10° WNW 16:41:35 66° SSW 16:44:49 10° ESE visible
11 Dec -0.9 18:15:32 10° W 18:17:36 16° SW 18:19:39 10° S visible
12 Dec -1.5 17:22:50 10° W 17:25:34 25° SW 17:28:17 10° SSE visible
13 Dec -2.2 16:30:24 10° W 16:33:28 38° SSW 16:36:31 10° SE visible
14 Dec -0.6 17:15:35 10° WSW 17:17:14 13° SW 17:18:53 10° SSW visible
